User: anonymous   Login
Location: Unspecified
(0.0000°N, 0.0000°E)
Time: 02:21:15
(UTC+02:00)
Language:

Cosmos 1295 Rocket - Orbit

View from above orbital plane
View from above orbital plane
View from above satellite
View from above satellite

Ground track
Ground track

The orbit data is extracted from the following two-line orbital elements,

1 12682U 81077B   15244.25903700  .00000059  00000-0  43114-4 0  9995
2 12682  82.9192 145.9767 0034768  23.0145  91.4926 13.78498885712635
Epoch (UTC): 01 September 2015 06:13:00
Eccentricity: 0.0034768
inclination: 82.9192°
perigee height: 943 km
apogee height: 995 km
right ascension of ascending node: 145.9767°
argument of perigee: 23.0145°
revolutions per day: 13.78498885
mean anomaly at epoch: 91.4926°
orbit number at epoch: 71263

The dashed part of the orbit path shows where the satellite is in the earth's shadow,  

DLR